Temp
72 72 72 72 62 58 57 64 73 70 69 76 79 75 69 68 67 57 72 75 75 73 74 78 79 79 79 78 78 78 78 78 78 78 78 78 78 78 78 79 79 79 80 80 80 80 80 80 80
70 75 73 70 56 52 57 67 68 69 75 78 78 75 69 64 71 70 70 75 75 73 72 74 79 79 79 78 78 78 78 78 78 78 78 78 78 78 78 78 79 80 80 80 80 80 80 80 80
74 77 69 64 52 53 57 68 69 74 78 78 74 77 71 64 71 72 73 74 73 71 72 75 79 79 78 78 78 77 78 78 78 78 78 78 78 78 78 78 79 80 80 80 80 79 79 79 79
75 71 67 61 53 61 67 71 73 73 77 78 76 68 75 79 75 74 75 75 72 70 71 78 79 78 78 78 78 77 78 78 78 78 78 78 78 78 78 78 79 79 79 79 79 79 79 79 79
70 65 58 54 58 66 72 78 76 73 73 75 76 67 68 77 77 75 75 74 70 69 72 75 78 78 78 78 78 78 78 78 78 78 78 78 78 78 78 78 78 79 79 79 79 79 78 78 78
66 63 55 53 61 77 76 78 77 72 73 74 72 69 68 76 74 74 75 71 72 71 72 73 78 78 78 78 78 77 77 78 78 78 78 78 78 78 78 78 78 78 78 78 78 78 78 78 77
64 59 55 54 61 66 72 76 72 72 72 73 77 65 67 72 75 76 73 70 72 73 71 71 72 75 78 77 77 77 77 77 77 77 77 78 78 77 77 77 78 78 78 78 78 78 78 77 78
67 62 54 58 60 60 74 76 78 74 73 82 80 65 61 72 77 75 72 69 70 71 70 69 69 70 69 71 77 77 77 77 77 77 77 78 78 77 77 76 77 77 77 78 78 78 78 78 77
68 59 54 59 65 66 74 70 78 80 76 78 80 75 77 77 76 71 69 67 68 71 68 68 68 67 68 69 73 76 78 77 77 77 78 75 69 69 73 75 77 77 77 78 78 77 78 77 77
65 56 62 69 71 70 73 73 76 74 73 72 75 78 79 76 73 70 68 67 67 68 69 67 67 66 66 74 69 68 70 69 69 69 69 68 67 68 74 75 77 78 78 78 78 77 76 74 69
64 62 67 73 75 77 74 74 76 72 65 73 72 72 74 74 72 71 71 70 69 70 70 69 67 66 66 68 66 65 65 65 67 68 68 67 69 67 69 68 69 69 74 69 70 69 68 66 68
61 72 73 74 84 78 73 75 74 73 74 80 79 77 74 73 72 72 71 71 70 70 71 70 69 66 66 66 66 64 65 65 65 67 68 66 66 67 68 71 67 69 70 69 71 66 66 67 68
65 70 73 77 77 81 79 73 73 72 78 80 80 79 75 74 74 75 75 73 71 70 71 71 70 68 67 66 64 65 65 66 67 68 69 68 67 67 68 68 66 67 71 70 70 69 65 66 67
69 69 73 71 72 75 76 74 73 73 78 77 78 76 77 75 75 75 73 71 71 73 72 72 71 71 69 66 65 66 66 67 68 68 69 71 69 71 71 67 67 66 71 69 71 69 64 65 65
71 69 71 69 71 71 78 71 69 76 78 76 76 77 77 75 78 76 76 74 75 75 74 72 72 71 70 67 67 67 67 69 68 69 70 71 72 71 71 66 67 68 67 72 70 68 66 63 64
67 64 59 64 74 73 74 66 71 76 75 74 76 77 77 75 77 78 78 77 76 76 72 73 78 73 70 69 69 69 69 68 68 68 69 72 73 74 70 70 67 71 70 71 69 63 62 62 62
60 55 55 62 71 72 67 62 74 76 75 73 76 76 76 75 73 76 79 78 76 76 74 72 74 73 71 70 69 69 68 68 69 68 69 71 73 74 70 69 67 67 66 65 64 62 62 61 60
54 54 55 60 65 69 65 66 72 75 75 73 75 76 76 75 75 76 76 78 76 71 72 70 69 69 70 69 68 67 67 68 68 68 69 71 72 75 70 69 66 66 64 63 63 62 61 62 62
62 58 59 64 72 70 64 66 69 74 75 73 74 74 75 76 77 76 77 77 74 71 68 68 67 67 69 67 67 67 66 67 67 68 70 70 71 71 68 66 65 64 64 63 63 62 61 60 60
61 59 60 67 69 66 63 63 71 73 74 75 74 74 76 76 74 75 74 74 73 73 69 67 68 66 67 68 68 68 67 68 69 69 69 69 70 69 67 65 65 64 63 63 63 62 60 59 59
59 58 58 62 67 65 62 58 64 72 73 77 76 78 78 78 74 75 74 75 74 71 70 69 68 68 67 68 69 68 68 67 67 67 67 68 69 69 67 66 64 63 63 63 62 61 60 60 59
55 69 67 65 59 54 62 50 57 67 69 72 75 76 77 78 78 77 76 72 73 75 71 69 68 67 68 69 68 69 68 66 65 66 67 67 68 69 68 66 65 64 62 62 62 63 61 59 58
65 70 66 63 58 52 55 52 55 64 64 69 72 77 76 78 77 76 76 76 75 73 72 70 68 68 69 68 68 68 67 66 66 66 67 67 67 67 68 67 66 64 63 63 62 62 61 59 59
75 64 60 54 53 47 56 55 54 57 68 71 74 77 77 76 77 78 77 73 72 72 72 70 68 68 68 69 69 69 67 66 65 66 65 65 66 66 67 66 65 64 63 63 63 62 62 61 60
66 59 48 45 45 47 56 52 59 63 69 76 76 78 78 77 76 74 71 71 70 70 70 70 69 69 69 70 69 69 68 67 67 65 65 65 65 65 65 65 64 64 64 63 63 62 61 61 60
60 58 47 40 42 52 56 51 59 68 71 74 80 80 80 73 76 74 72 73 72 71 71 72 70 69 69 70 69 69 68 67 66 67 66 66 65 65 66 65 65 64 64 63 63 61 61 61 61
58 55 63 52 48 47 53 58 66 67 66 67 68 74 74 72 71 72 72 73 72 71 71 72 70 68 68 69 69 68 66 66 66 66 66 66 66 66 66 65 66 65 65 64 63 61 62 60 60
65 68 57 49 42 39 51 52 54 60 61 62 62 61 64 67 69 69 71 72 72 71 66 64 65 65 67 68 67 67 67 66 66 65 65 65 64 63 63 64 65 64 64 63 61 60 60 59 60
59 55 55 54 49 45 44 48 59 63 63 60 60 63 64 63 64 67 67 67 66 64 62 62 64 65 65 65 65 66 65 66 65 64 63 63 63 63 63 63 63 62 62 62 60 60 60 59 58
63 60 57 48 51 48 46 49 61 63 62 64 64 65 65 65 66 65 63 62 62 61 62 62 62 62 63 64 63 62 63 63 62 62 62 62 62 61 61 61 61 61 60 60 60 59 59 58 57
MSLP
1009.97 1010.12 1010.37 1010.53 1011.41 1011.10 1010.65 1009.82 1008.99 1009.02 1008.92 1008.61 1008.70 1009.36 1010.39 1011.46 1011.89 1013.19 1012.95 1013.31 1013.66 1014.47 1014.72 1014.81 1014.91 1015.13 1015.32 1015.48 1015.66 1015.75 1015.82 1015.86 1016.00 1016.05 1016.01 1015.94 1015.92 1015.89 1015.78 1015.74 1015.60 1015.49 1015.39 1015.40 1015.44 1015.43 1015.40 1015.37 1015.33
1010.01 1010.40 1010.56 1010.80 1011.22 1011.35 1010.70 1009.73 1009.17 1008.79 1008.76 1008.77 1009.12 1009.76 1010.55 1011.66 1012.18 1012.89 1013.37 1013.74 1013.78 1014.41 1014.83 1014.91 1015.10 1015.39 1015.61 1015.85 1016.04 1016.09 1016.15 1016.23 1016.26 1016.28 1016.26 1016.20 1016.18 1016.09 1015.96 1015.83 1015.75 1015.74 1015.68 1015.71 1015.75 1015.72 1015.65 1015.64 1015.64
1009.98 1009.96 1010.61 1010.80 1011.22 1010.97 1010.25 1009.60 1009.23 1008.89 1008.77 1008.89 1009.61 1009.92 1010.83 1011.94 1012.61 1013.07 1013.34 1013.91 1014.28 1014.76 1015.04 1015.14 1015.35 1015.65 1015.84 1016.08 1016.23 1016.35 1016.40 1016.48 1016.44 1016.44 1016.37 1016.33 1016.33 1016.28 1016.16 1016.08 1016.05 1016.00 1016.05 1016.09 1016.12 1016.10 1016.11 1016.05 1015.95
1009.72 1010.28 1010.82 1010.67 1010.72 1009.94 1009.45 1009.33 1009.15 1008.99 1009.00 1009.05 1009.60 1010.55 1011.27 1011.58 1012.15 1012.82 1013.62 1014.03 1014.61 1015.08 1015.36 1015.31 1015.51 1015.76 1015.98 1016.10 1016.30 1016.39 1016.49 1016.63 1016.62 1016.65 1016.65 1016.63 1016.55 1016.43 1016.42 1016.38 1016.40 1016.42 1016.48 1016.63 1016.55 1016.44 1016.29 1016.17 1015.99
1009.76 1010.47 1010.95 1010.73 1010.02 1009.33 1008.84 1009.00 1008.87 1009.04 1009.14 1009.43 1009.77 1011.04 1011.79 1012.24 1012.48 1012.99 1013.63 1014.21 1014.81 1015.27 1015.31 1015.41 1015.55 1015.82 1016.06 1016.28 1016.48 1016.64 1016.70 1016.77 1016.77 1016.74 1016.84 1016.84 1016.85 1016.77 1016.70 1016.65 1016.58 1016.62 1016.70 1016.87 1016.81 1016.59 1016.37 1016.17 1015.78
1010.27 1010.84 1011.12 1010.65 1009.47 1008.68 1008.53 1008.63 1009.09 1009.18 1009.23 1009.56 1010.35 1011.18 1012.26 1012.58 1012.85 1013.49 1013.92 1014.50 1014.85 1015.22 1015.29 1015.47 1015.72 1016.04 1016.33 1016.55 1016.71 1016.89 1016.99 1017.07 1017.07 1017.09 1017.12 1017.16 1017.13 1017.03 1016.95 1016.95 1016.87 1016.87 1016.95 1017.01 1017.00 1016.87 1016.60 1016.31 1016.30
1010.08 1010.80 1010.74 1010.09 1009.11 1008.74 1008.29 1008.37 1008.84 1009.13 1009.07 1009.53 1009.96 1011.53 1012.74 1013.00 1013.24 1013.56 1014.37 1014.83 1015.10 1015.30 1015.49 1015.70 1015.94 1016.12 1016.37 1016.66 1016.80 1016.91 1017.03 1017.19 1017.32 1017.35 1017.36 1017.33 1017.29 1017.27 1017.24 1017.25 1017.17 1017.15 1017.23 1017.25 1017.25 1017.14 1016.99 1016.88 1016.79
1009.65 1010.51 1010.37 1009.49 1008.78 1008.32 1007.70 1008.14 1008.59 1009.16 1009.19 1009.29 1009.84 1011.33 1012.54 1012.68 1013.52 1014.04 1014.76 1015.32 1015.54 1015.64 1015.66 1015.84 1016.04 1016.24 1016.48 1016.71 1016.88 1017.10 1017.24 1017.33 1017.40 1017.45 1017.53 1017.57 1017.56 1017.56 1017.50 1017.53 1017.47 1017.40 1017.36 1017.42 1017.46 1017.42 1017.30 1017.29 1017.32
1009.17 1010.04 1009.99 1008.72 1007.98 1007.86 1007.74 1008.03 1009.05 1008.95 1009.14 1009.50 1009.88 1010.52 1011.06 1012.36 1013.46 1014.40 1015.21 1015.81 1015.95 1016.00 1016.05 1015.96 1016.12 1016.28 1016.50 1016.72 1016.89 1017.13 1017.29 1017.42 1017.50 1017.57 1017.68 1017.80 1017.93 1017.87 1017.82 1017.84 1017.76 1017.56 1017.46 1017.48 1017.58 1017.58 1017.54 1017.50 1017.46
1009.02 1009.61 1008.79 1007.77 1007.18 1007.16 1007.68 1008.03 1008.64 1009.08 1009.60 1009.86 1010.04 1010.56 1011.53 1012.53 1013.38 1014.12 1014.85 1015.38 1015.70 1015.83 1016.06 1016.31 1016.31 1016.47 1016.66 1016.74 1017.07 1017.24 1017.33 1017.47 1017.65 1017.65 1017.68 1017.81 1017.93 1017.97 1017.94 1018.02 1017.95 1017.74 1017.65 1017.59 1017.70 1017.63 1017.83 1017.68 1017.70
1008.36 1008.40 1007.98 1007.04 1006.75 1007.10 1007.79 1008.29 1008.32 1009.00 1009.82 1009.32 1009.76 1010.79 1011.70 1012.65 1013.36 1013.79 1014.34 1014.39 1014.44 1015.27 1015.79 1016.13 1016.46 1016.66 1016.75 1016.74 1017.12 1017.32 1017.56 1017.65 1017.61 1017.57 1017.59 1017.76 1017.77 1017.82 1017.79 1017.95 1017.99 1018.14 1018.06 1018.00 1018.16 1018.09 1018.10 1018.08 1018.22
1007.89 1007.21 1006.70 1005.98 1005.91 1006.94 1007.76 1008.05 1008.34 1008.73 1008.55 1008.70 1009.06 1010.00 1011.27 1012.30 1012.94 1013.43 1013.90 1014.41 1014.71 1015.07 1015.45 1015.75 1015.92 1016.38 1016.63 1016.62 1016.76 1017.04 1017.42 1017.44 1017.50 1017.68 1017.78 1017.93 1017.85 1017.76 1017.76 1017.82 1017.95 1018.10 1018.09 1018.06 1018.26 1018.47 1018.47 1018.33 1018.43
1007.27 1006.87 1006.18 1005.62 1005.21 1005.86 1007.38 1007.76 1008.12 1008.65 1008.48 1009.16 1009.66 1010.11 1010.94 1011.82 1012.22 1012.85 1013.08 1013.79 1014.37 1014.79 1015.10 1015.40 1015.75 1016.07 1016.47 1016.74 1016.90 1017.16 1017.43 1017.57 1017.64 1017.72 1017.79 1017.92 1018.03 1017.88 1017.77 1017.90 1017.95 1017.92 1017.94 1018.12 1018.26 1018.58 1018.86 1018.81 1018.97
1006.68 1006.51 1006.07 1005.65 1005.86 1006.20 1006.91 1007.81 1007.81 1008.68 1008.71 1009.47 1009.79 1010.19 1010.75 1011.36 1011.84 1012.45 1013.26 1013.66 1013.88 1014.30 1014.60 1014.86 1015.16 1015.35 1015.84 1016.56 1016.80 1016.91 1017.24 1017.29 1017.35 1017.41 1017.58 1017.78 1017.76 1017.71 1017.61 1017.89 1017.85 1017.90 1017.74 1017.87 1018.20 1018.69 1019.13 1019.04 1019.20
1006.38 1006.27 1005.84 1006.03 1006.26 1006.79 1006.97 1008.08 1008.16 1008.10 1008.58 1009.22 1009.76 1010.10 1010.52 1010.92 1011.30 1011.58 1011.93 1012.78 1013.08 1013.45 1013.86 1014.36 1014.70 1014.95 1015.63 1016.21 1016.60 1016.78 1016.79 1017.02 1017.11 1017.01 1017.25 1017.41 1017.57 1017.58 1017.76 1017.94 1017.91 1017.66 1017.62 1017.71 1018.25 1018.71 1018.98 1019.22 1019.51
1006.75 1006.95 1006.68 1006.43 1006.41 1007.00 1006.93 1007.70 1008.05 1008.18 1008.63 1009.23 1009.52 1009.70 1010.18 1010.58 1010.42 1010.91 1011.18 1011.69 1012.35 1012.90 1013.38 1013.94 1014.35 1014.92 1015.36 1015.80 1016.04 1016.28 1016.40 1016.62 1016.76 1016.81 1016.96 1017.07 1017.36 1017.46 1017.50 1017.61 1017.70 1017.47 1017.47 1017.58 1018.09 1018.76 1018.87 1019.09 1019.12
1007.88 1007.70 1007.11 1006.75 1006.42 1006.81 1007.33 1007.84 1008.04 1008.68 1008.97 1009.22 1009.13 1009.31 1009.67 1010.04 1010.46 1010.43 1010.52 1011.03 1011.62 1012.03 1012.87 1013.62 1013.91 1014.52 1015.11 1015.48 1015.75 1015.90 1016.04 1016.19 1016.25 1016.52 1016.59 1016.75 1016.86 1016.99 1017.30 1017.39 1017.49 1017.49 1017.71 1017.87 1018.24 1018.54 1018.81 1019.13 1019.35
1008.34 1008.06 1007.58 1007.02 1006.80 1006.78 1007.28 1007.61 1007.94 1008.27 1008.78 1008.78 1008.85 1009.00 1009.38 1009.59 1009.65 1009.95 1010.43 1010.84 1011.19 1011.88 1012.52 1013.29 1013.83 1014.40 1015.00 1015.52 1015.91 1015.98 1015.73 1015.83 1016.12 1016.36 1016.44 1016.50 1016.51 1016.63 1017.14 1017.51 1017.64 1017.78 1018.17 1018.30 1018.40 1018.54 1018.57 1018.81 1019.16
1008.05 1008.06 1007.85 1006.91 1006.97 1007.45 1007.57 1007.39 1007.75 1007.80 1008.49 1008.75 1008.70 1008.84 1008.97 1009.13 1009.13 1009.56 1009.99 1010.58 1011.49 1012.37 1012.86 1013.50 1014.14 1014.52 1014.93 1015.56 1015.96 1015.85 1015.96 1016.01 1016.09 1016.06 1016.04 1016.18 1016.34 1016.63 1016.79 1017.30 1017.50 1017.61 1017.87 1018.24 1018.56 1018.56 1018.76 1018.86 1019.16
1007.93 1007.91 1007.43 1006.51 1006.15 1006.75 1006.88 1007.23 1007.21 1007.57 1007.03 1007.15 1007.59 1008.20 1008.12 1008.66 1009.10 1009.68 1010.01 1010.51 1011.11 1011.72 1012.74 1013.43 1013.88 1014.27 1014.61 1014.91 1015.06 1015.31 1015.58 1015.84 1015.74 1015.83 1016.05 1016.13 1016.35 1016.50 1016.79 1016.96 1017.32 1017.54 1017.87 1018.01 1018.18 1018.54 1018.99 1019.08 1018.86
1007.60 1007.70 1007.37 1007.21 1006.58 1006.65 1007.06 1007.65 1007.81 1007.47 1006.97 1007.27 1007.50 1007.39 1007.63 1007.85 1008.39 1009.15 1009.91 1010.24 1010.89 1011.71 1012.27 1012.65 1013.24 1013.82 1014.17 1014.55 1014.92 1015.35 1015.63 1015.79 1015.96 1016.03 1016.20 1016.14 1016.28 1016.46 1016.76 1016.95 1017.26 1017.55 1017.64 1017.78 1017.91 1018.15 1018.56 1018.81 1018.86
1007.19 1006.73 1006.86 1007.16 1007.68 1007.62 1007.50 1008.29 1007.87 1007.10 1006.97 1006.99 1006.90 1006.98 1007.12 1007.56 1008.13 1008.65 1009.36 1010.05 1010.35 1010.81 1011.67 1012.38 1012.96 1013.59 1013.97 1014.28 1014.71 1015.20 1015.46 1015.73 1015.89 1016.04 1016.06 1016.24 1016.24 1016.34 1016.60 1016.91 1017.16 1017.16 1017.23 1017.51 1017.39 1017.52 1017.97 1018.35 1018.67
1006.28 1006.10 1006.61 1007.11 1007.81 1008.01 1007.95 1008.40 1007.09 1007.12 1007.13 1006.50 1005.92 1005.78 1006.50 1006.86 1007.45 1008.09 1008.57 1009.09 1009.72 1010.63 1011.03 1011.84 1012.69 1013.22 1013.23 1013.71 1014.15 1014.66 1015.17 1015.68 1015.93 1016.18 1016.24 1016.31 1016.18 1016.23 1016.26 1016.73 1016.88 1017.07 1017.14 1017.27 1017.46 1017.62 1017.83 1018.00 1018.14
1005.57 1006.05 1006.83 1007.75 1008.39 1008.54 1007.88 1008.10 1007.16 1006.70 1005.47 1004.93 1004.71 1005.00 1005.50 1006.09 1007.01 1007.58 1008.36 1009.12 1009.67 1010.28 1011.12 1011.82 1012.37 1012.53 1012.97 1013.05 1013.29 1014.07 1014.59 1015.15 1016.13 1016.32 1016.14 1016.52 1016.48 1016.22 1016.45 1016.59 1016.91 1016.96 1016.83 1017.04 1016.96 1017.03 1017.44 1017.51 1017.66
1005.45 1006.73 1007.73 1008.78 1008.94 1008.69 1007.34 1007.57 1005.88 1004.75 1004.21 1003.60 1003.39 1003.58 1004.52 1005.44 1006.39 1007.47 1008.32 1008.97 1009.52 1010.09 1010.74 1011.54 1011.85 1012.03 1012.42 1012.65 1013.21 1013.72 1014.30 1015.36 1015.46 1015.45 1015.96 1016.37 1016.80 1016.66 1016.41 1016.30 1016.43 1016.46 1016.32 1016.50 1016.47 1016.83 1017.16 1017.34 1017.50
1005.88 1006.75 1007.97 1008.69 1009.11 1008.40 1007.43 1006.74 1004.71 1004.03 1003.41 1002.84 1002.62 1002.82 1003.75 1005.21 1006.13 1006.94 1007.79 1008.57 1009.36 1009.94 1010.50 1010.93 1011.47 1012.02 1012.44 1012.81 1013.19 1013.40 1014.12 1014.83 1015.08 1014.89 1014.38 1015.29 1015.44 1016.68 1016.50 1016.10 1015.98 1015.97 1015.93 1016.18 1016.37 1016.75 1016.83 1016.86 1016.92
1005.66 1006.51 1006.85 1008.22 1009.09 1008.94 1007.67 1006.07 1004.67 1004.20 1003.91 1003.30 1003.12 1003.39 1004.11 1005.11 1005.68 1006.65 1007.65 1008.30 1009.13 1009.82 1010.44 1010.94 1011.86 1012.30 1012.89 1013.12 1013.48 1013.95 1014.38 1014.45 1014.34 1014.51 1014.98 1015.32 1015.72 1016.47 1016.65 1016.34 1016.04 1015.69 1015.68 1015.83 1016.12 1016.26 1016.38 1016.57 1016.52
1005.31 1005.86 1006.85 1008.64 1009.24 1009.22 1008.01 1006.62 1005.20 1004.67 1004.71 1004.54 1004.88 1005.32 1005.43 1005.77 1006.27 1006.96 1007.71 1008.55 1009.23 1010.06 1011.43 1011.76 1012.16 1012.95 1013.29 1013.54 1013.80 1014.09 1014.15 1014.12 1014.53 1014.74 1015.15 1015.56 1015.93 1016.59 1016.54 1016.11 1016.01 1016.00 1015.99 1015.93 1016.02 1016.17 1016.32 1016.30 1016.26
1005.93 1006.27 1007.19 1008.20 1008.59 1008.65 1008.34 1006.63 1004.61 1004.58 1004.27 1004.88 1005.00 1005.95 1006.46 1006.82 1007.47 1008.22 1008.73 1009.36 1010.22 1011.26 1011.95 1012.44 1012.60 1013.29 1013.93 1013.96 1013.72 1013.82 1014.04 1014.43 1014.70 1015.08 1015.44 1015.82 1015.73 1016.49 1016.37 1016.20 1016.12 1015.94 1015.96 1016.01 1016.12 1016.27 1016.22 1016.15 1016.13
1006.03 1006.42 1007.09 1008.33 1008.18 1008.15 1007.87 1006.14 1004.81 1004.93 1004.68 1004.98 1005.90 1006.02 1006.53 1007.14 1007.89 1009.34 1010.08 1010.15 1010.63 1011.60 1012.16 1013.00 1013.39 1013.51 1014.02 1013.79 1013.76 1014.01 1014.20 1014.84 1015.37 1015.42 1015.67 1015.81 1016.36 1016.38 1016.04 1016.11 1016.29 1016.40 1016.33 1016.31 1016.35 1016.40 1016.44 1016.30 1016.30
Wind_Speed
6 5 2 3 4 4 2 2 1 4 1 4 4 2 8 4 1 3 4 6 15 9 7 10 14 14 13 12 11 11 11 11 11 11 12 12 12 12 12 12 11 9 12 12 12 11 11 10 8
4 3 3 2 5 4 3 3 1 0 6 8 7 4 6 3 4 9 5 10 13 9 6 6 15 13 13 11 10 10 10 10 10 11 11 11 11 11 11 11 11 14 15 15 15 14 12 11 10
5 2 3 4 3 4 3 1 8 10 12 3 5 5 4 3 7 6 10 12 10 7 6 8 15 13 13 11 10 9 9 9 10 10 10 10 9 9 10 11 12 13 14 15 15 14 11 10 9
3 3 4 4 2 2 4 8 8 8 1 5 8 6 5 2 8 8 14 13 11 6 5 13 14 14 13 12 10 10 9 9 9 9 9 8 9 9 10 10 11 12 14 15 15 13 12 9 6
4 3 3 1 1 2 6 8 8 6 1 5 3 4 5 3 11 17 15 12 12 8 6 8 14 14 13 11 10 9 9 9 8 8 8 7 8 9 10 10 9 10 13 14 13 11 11 10 6
4 3 4 2 4 5 11 11 6 3 3 6 8 6 3 12 15 13 13 12 11 10 8 7 13 13 12 10 9 8 7 7 7 7 6 7 7 8 8 8 8 8 11 12 11 11 12 11 12
5 4 4 3 4 6 7 8 6 5 6 5 7 5 2 10 8 13 9 8 9 8 8 6 6 10 12 10 9 8 8 7 6 4 3 5 7 6 6 5 6 6 8 9 11 9 12 14 13
5 5 1 4 2 1 9 6 8 6 1 9 10 7 6 9 11 10 9 6 6 7 6 6 6 6 6 6 9 8 7 7 6 5 3 3 5 4 4 3 3 3 4 6 7 7 8 9 12
4 4 2 4 6 5 9 7 6 3 10 3 4 7 7 17 14 11 9 5 4 6 5 5 6 6 6 6 6 8 8 7 7 5 4 2 1 2 3 2 1 1 3 4 5 7 8 10 13
4 4 6 5 4 7 8 11 12 6 10 1 5 11 18 18 16 15 12 10 9 10 9 5 5 6 6 5 4 5 4 3 3 4 3 2 2 2 2 2 4 2 2 6 9 10 10 6 3
5 5 5 6 3 8 10 9 2 15 4 11 19 19 20 18 14 14 12 14 16 10 8 8 6 5 6 5 4 3 2 2 3 5 4 3 2 2 3 1 2 2 4 3 5 5 4 5 4
1 7 4 3 11 13 9 7 6 7 8 15 18 21 20 18 16 14 13 12 10 11 10 9 9 7 6 4 4 4 3 3 3 4 4 2 3 3 3 2 2 2 2 3 3 3 3 5 5
5 4 3 9 9 21 9 5 7 6 10 10 11 16 20 17 17 14 13 9 7 10 10 10 9 8 6 5 4 4 4 4 3 3 4 3 3 3 3 3 3 3 2 1 1 3 2 5 4
3 4 7 3 6 9 12 6 4 2 10 12 14 13 15 17 16 12 8 8 10 11 11 10 11 10 8 6 5 5 4 4 4 4 4 4 3 3 3 4 3 2 3 3 2 3 1 4 4
4 7 6 4 7 4 9 1 5 10 14 15 13 11 9 11 16 17 16 13 15 12 12 13 12 10 10 8 6 5 5 4 5 5 4 6 5 4 2 1 3 3 4 5 4 4 1 4 2
5 5 5 2 8 5 5 12 5 12 16 15 15 13 11 9 18 13 15 15 14 12 14 12 11 10 9 8 7 5 5 5 5 4 5 6 5 5 4 3 3 3 3 4 4 2 4 3 4
7 1 2 2 7 7 4 2 6 9 12 14 15 13 11 10 7 9 15 15 16 14 12 12 11 11 9 7 5 5 6 5 5 3 5 6 6 6 4 4 3 2 2 2 2 2 2 3 3
3 2 4 4 1 4 5 8 11 15 14 16 15 13 11 11 14 11 11 11 12 10 11 10 6 8 8 5 4 2 4 4 4 4 5 6 5 6 4 1 3 4 2 2 1 1 2 3 3
2 2 4 6 8 8 11 7 16 18 14 13 13 13 12 14 9 9 10 12 8 6 8 8 8 6 7 3 4 3 3 2 2 4 5 5 4 4 6 4 4 3 4 3 2 0 2 2 2
3 3 6 9 3 3 3 10 17 19 22 21 18 15 16 12 8 9 9 11 12 14 9 8 9 9 6 4 3 3 3 1 2 2 4 5 6 6 5 5 5 4 2 3 3 3 1 2 3
3 4 4 8 7 2 4 4 9 16 6 13 12 16 15 17 14 11 11 14 11 12 13 12 10 9 6 5 3 3 3 1 1 1 2 4 6 5 5 5 3 4 3 3 4 4 5 3 2
5 8 7 5 3 4 4 5 7 17 21 12 15 17 16 15 12 10 11 9 13 14 9 9 9 8 6 7 4 5 4 4 2 2 2 3 5 5 5 5 5 5 3 5 4 4 4 3 4
9 3 8 5 5 1 2 3 7 9 14 19 18 22 15 15 14 14 15 16 13 10 12 10 9 8 8 7 7 6 5 1 1 0 2 4 5 5 5 5 5 5 4 5 5 3 4 3 3
7 2 5 5 4 1 7 7 7 7 24 24 20 20 17 13 13 14 7 9 8 8 9 10 10 10 8 11 11 9 8 6 2 1 2 3 3 3 4 4 4 5 5 5 5 5 5 5 4
4 6 4 5 4 7 1 5 10 5 10 21 26 24 18 14 14 12 12 12 10 11 11 10 14 12 12 12 9 8 7 6 7 5 1 1 2 3 5 5 6 5 5 6 4 4 5 5 4
4 7 7 3 3 5 3 6 7 5 8 11 16 20 18 11 12 14 15 14 13 13 13 13 10 8 10 9 6 6 6 5 5 4 6 2 3 4 7 5 5 6 4 5 4 3 4 5 6
2 4 6 3 1 2 4 7 9 4 6 8 0 10 14 12 14 14 14 15 14 13 13 11 5 5 4 3 3 4 5 7 6 6 1 1 4 2 6 6 4 4 4 5 3 3 5 4 4
6 4 1 3 3 4 5 4 6 3 3 6 8 5 6 7 10 11 11 11 9 8 9 9 9 7 4 4 3 4 7 5 2 3 5 4 3 4 7 4 3 3 4 3 2 2 2 3 3
5 4 3 3 5 6 4 8 7 7 9 10 10 7 6 7 8 7 7 9 7 10 10 8 8 7 5 4 4 4 4 4 3 4 5 4 4 6 5 3 5 6 6 6 5 5 5 4 4
5 6 8 5 5 4 5 8 3 4 8 11 8 10 10 12 12 9 7 8 7 8 9 7 6 7 4 5 7 6 6 6 5 4 2 3 4 3 6 6 6 5 5 5 4 5 5 4 5
Wind_Direction
141 145 118 45 43 70 53 283 216 152 268 334 102 121 129 3 46 187 83 112 123 129 143 143 141 129 125 124 118 112 104 97 94 92 86 82 78 74 72 74 77 71 77 84 87 91 85 92 113
126 121 39 99 79 54 305 275 61 91 128 105 70 72 50 71 69 118 100 132 131 134 135 141 132 131 129 124 116 110 109 104 100 94 86 80 73 70 73 75 65 70 72 70 70 71 75 79 93
164 193 93 98 107 156 178 86 131 140 158 172 117 68 109 111 111 134 127 125 117 115 131 146 136 133 131 129 126 121 116 111 105 97 91 85 79 74 74 71 69 75 75 74 72 71 71 72 81
154 21 29 82 213 259 123 155 167 146 343 42 104 67 61 183 140 130 134 132 125 125 146 140 138 138 140 142 139 135 127 117 110 101 92 83 82 82 84 76 74 72 73 72 71 63 58 51 56
38 58 61 20 220 152 125 168 158 152 171 124 83 99 89 62 109 130 138 134 142 150 152 141 144 148 150 147 144 140 128 122 118 110 98 85 83 83 87 81 75 72 73 69 65 55 51 50 71
46 95 51 218 249 151 154 167 154 158 156 103 94 89 98 127 137 146 146 147 151 155 146 150 151 150 149 150 146 137 130 128 123 109 95 86 86 82 85 81 73 65 68 72 64 51 50 84 88
126 97 197 246 274 159 164 150 130 162 136 121 128 83 81 148 164 144 135 130 150 156 143 136 141 155 155 155 153 151 150 146 131 120 106 87 84 85 90 83 74 62 64 65 63 53 66 75 91
112 87 245 240 218 189 155 142 127 161 155 116 139 149 188 180 149 120 119 124 144 153 153 148 151 146 149 160 162 159 157 155 156 158 145 105 87 94 85 64 60 50 50 57 60 60 66 87 103
121 60 264 253 135 173 164 113 147 113 136 179 203 130 165 141 128 121 118 117 134 169 173 167 159 161 154 160 173 167 168 171 179 185 194 108 41 351 343 314 278 50 0 16 32 37 60 95 116
109 132 221 212 188 182 157 143 163 135 162 26 103 92 130 141 148 153 162 169 178 188 186 185 169 169 160 166 174 170 190 175 185 201 213 190 212 260 253 256 274 274 335 342 20 13 55 132 136
178 200 195 252 173 100 158 151 174 141 192 180 158 142 149 157 165 166 176 183 185 185 181 180 173 186 176 171 168 182 194 191 204 213 211 224 234 229 225 197 298 346 341 337 33 15 19 102 104
335 248 245 208 194 151 164 148 126 185 184 175 160 149 155 168 172 180 184 178 182 184 186 172 180 178 198 171 178 178 188 205 207 219 224 215 247 235 216 222 210 236 242 275 55 26 28 107 121
195 249 323 298 193 164 158 170 143 211 143 155 153 149 162 173 180 188 194 176 166 179 186 183 178 174 192 195 167 177 207 219 223 224 235 219 250 231 204 227 225 225 211 254 36 63 54 108 109
236 253 278 226 131 144 152 161 118 204 136 157 166 165 161 175 188 182 169 187 186 180 189 181 185 183 170 188 188 189 201 215 213 234 230 230 233 209 175 189 226 248 202 204 120 112 133 151 145
266 351 351 121 139 128 107 351 202 161 160 163 171 176 180 183 182 188 187 181 191 191 183 183 186 180 180 179 191 190 208 202 217 225 199 210 200 196 151 142 234 237 187 172 121 106 83 118 110
31 44 354 324 129 204 116 209 186 175 159 174 178 185 191 195 190 186 187 185 186 184 180 183 188 184 183 178 191 195 204 199 224 215 187 202 202 197 162 172 208 175 172 145 138 189 112 131 163
9 257 282 37 200 146 95 227 181 175 176 185 191 193 194 194 201 192 187 181 180 182 172 178 180 178 177 177 180 184 185 188 200 199 189 193 200 189 179 187 196 180 154 160 163 155 136 154 180
220 10 337 281 352 174 165 226 180 179 190 197 197 198 204 200 205 192 179 180 178 171 170 166 153 151 150 142 144 155 179 171 169 187 190 196 206 194 190 121 160 159 153 208 203 171 163 162 196
128 202 260 255 172 188 201 186 184 184 197 208 204 206 206 214 207 189 181 174 163 158 153 159 147 163 152 157 163 189 172 153 161 202 218 224 199 218 177 180 190 182 176 199 241 305 211 224 179
196 270 289 289 309 146 174 212 191 185 205 202 196 207 207 204 186 189 182 169 175 177 166 164 174 173 181 172 178 154 139 197 175 199 225 202 208 198 194 177 203 197 193 198 194 187 268 284 180
214 210 229 223 329 312 96 354 159 218 250 215 212 221 214 204 193 188 184 186 171 173 181 183 179 180 179 161 128 84 80 80 155 182 239 221 206 195 205 205 200 211 199 215 206 197 185 219 239
275 200 231 260 65 261 134 275 223 203 219 215 216 220 218 208 203 191 184 180 186 192 167 162 171 170 177 180 168 162 179 196 217 210 217 216 212 212 208 217 219 220 213 225 215 182 201 164 241
231 242 213 231 208 86 301 77 263 181 217 226 220 219 212 206 190 189 191 189 190 159 173 164 158 169 185 179 179 175 200 136 80 266 231 232 228 223 224 221 223 226 212 236 237 234 212 203 197
258 306 61 53 109 18 251 152 274 186 207 220 225 221 206 194 187 194 162 134 156 144 143 155 164 192 178 195 194 189 185 169 191 332 319 277 272 255 253 276 268 265 236 252 235 234 239 236 232
89 64 345 342 5 225 255 116 230 261 232 221 214 219 202 191 173 165 152 152 150 156 160 155 184 196 197 205 177 194 185 148 166 157 151 326 329 303 271 238 237 239 231 256 237 235 258 282 261
184 153 152 225 226 251 102 243 253 232 288 235 222 220 199 167 172 167 162 163 163 166 165 180 190 194 195 199 197 177 156 153 189 166 153 228 122 294 297 287 259 252 251 263 275 281 263 259 251
289 209 191 146 40 13 259 277 312 292 355 47 195 165 187 163 158 164 157 158 164 164 175 178 156 110 132 145 176 171 150 169 168 170 214 114 77 297 274 307 306 308 286 278 275 257 268 267 270
172 199 333 14 210 243 275 262 231 275 359 80 57 66 102 131 133 143 152 154 158 139 88 66 97 101 100 117 133 160 173 190 122 131 166 113 72 241 264 270 286 308 324 349 316 295 305 294 295
15 351 356 148 160 184 237 259 217 218 185 143 135 119 124 107 98 102 96 85 85 75 76 84 89 112 116 133 126 108 89 111 117 95 109 167 202 264 280 3 23 17 359 2 359 334 318 327 321
186 226 177 159 250 200 171 267 336 225 153 127 123 125 123 125 116 92 65 88 93 98 96 106 125 140 164 100 75 72 84 95 118 176 152 146 130 106 83 86 69 45 39 34 20 346 334 344 326